EW6762 Weather Reports


Display with metric or nautical units.
time (UTC)temp
F
wind
direction
speed
MPH
gust
MPH
rain 1hr
in
rain 24hr
in
rain mn
in
humidity
%
barometer
mb
20260903004314 90 188 1.0 2.0 0.00 0.00 0.00 68 1017.4
20260903003310 90 165 1.0 3.0 0.00 0.00 0.00 69 1017.3
20260903002308 90 184 1.0 3.0 0.00 0.00 0.00 70 1017.2
20260903001313 91 180 2.0 3.0 0.00 0.00 0.00 71 1017.2
20260903000312 91 175 0.0 2.0 0.00 0.00 0.00 70 1017.0
20260902235334 92 154 1.0 2.0 0.00 0.00 0.00 69 1017.0
20260902234328 93 86 1.0 2.0 0.00 0.00 0.00 68 1017.2
20260902233335 93 51 1.0 1.0 0.00 0.00 0.00 67 1017.0
20260902232331 94 71 1.0 2.0 0.00 0.00 0.00 66 1017.0
20260902231328 94 101 0.0 1.0 0.00 0.00 0.00 65 1017.0
20260902230331 95 124 0.0 3.0 0.00 0.00 0.00 65 1017.1
20260902225347 97 78 1.0 3.0 0.00 0.00 0.00 62 1017.0
20260902224330 98 61 1.0 3.0 0.00 0.00 0.00 59 1017.0
20260902223323 99 47 1.0 4.0 0.00 0.00 0.00 57 1017.0
20260902222324 100 35 2.0 4.0 0.00 0.00 0.00 55 1016.9
20260902221320 101 9 1.0 3.0 0.00 0.00 0.00 52 1016.8
20260902220316 102 34 2.0 4.0 0.00 0.00 0.00 51 1016.8
20260902215317 103 17 1.0 5.0 0.00 0.00 0.00 50 1016.9
20260902214309 104 44 2.0 5.0 0.00 0.00 0.00 48 1017.0
20260902213326 104 108 2.0 5.0 0.00 0.00 0.00 49 1017.0
20260902212323 104 85 3.0 5.0 0.00 0.00 0.00 50 1016.9
20260902211342 104 355 3.0 6.0 0.00 0.00 0.00 48 1017.1
20260902210318 104 31 3.0 5.0 0.00 0.00 0.00 50 1017.2
20260902205319 104 9 2.0 6.0 0.00 0.00 0.00 52 1017.2
20260902204314 104 63 4.0 7.0 0.00 0.00 0.00 51 1017.2
20260902203312 103 28 2.0 7.0 0.00 0.00 0.00 53 1017.2
20260902202330 103 84 4.0 6.0 0.00 0.00 0.00 54 1017.2
20260902201349 103 180 2.0 6.0 0.00 0.00 0.00 54 1017.2
20260902200322 102 15 2.0 8.0 0.00 0.00 0.00 55 1017.4
20260902195321 101 27 3.0 5.0 0.00 0.00 0.00 55 1017.5
20260902194317 102 196 2.0 7.0 0.00 0.00 0.00 52 1017.6
20260902193313 103 24 2.0 6.0 0.00 0.00 0.00 53 1017.6
20260902192313 104 61 5.0 6.0 0.00 0.00 0.00 50 1017.7
20260902191335 104 123 2.0 7.0 0.00 0.00 0.00 52 1017.7
20260902190324 104 54 4.0 6.0 0.00 0.00 0.00 54 1017.8
20260902185319 103 82 3.0 5.0 0.00 0.00 0.00 53 1017.9
20260902184346 103 82 3.0 9.0 0.00 0.00 0.00 51 1018.0
20260902183314 103 26 2.0 7.0 0.00 0.00 0.00 54 1018.1
20260902182321 103 32 3.0 7.0 0.00 0.00 0.00 54 1018.2
20260902181322 103 64 2.0 6.0 0.00 0.00 0.00 53 1018.2
20260902180329 103 138 3.0 7.0 0.00 0.00 0.00 51 1018.3
20260902175327 103 183 2.0 8.0 0.00 0.00 0.00 55 1018.5
20260902174316 102 49 1.0 6.0 0.00 0.00 0.00 58 1018.5
20260902173330 101 97 1.0 5.0 0.00 0.00 0.00 60 1018.5
20260902172353 101 94 2.0 5.0 0.00 0.00 0.00 59 1018.5
20260902171310 101 34 2.0 7.0 0.00 0.00 0.00 59 1018.7
20260902170326 101 340 2.0 6.0 0.00 0.00 0.00 58 1018.8
20260902165327 101 64 3.0 6.0 0.00 0.00 0.00 59 1018.8
20260902164336 101 165 2.0 6.0 0.00 0.00 0.00 61 1018.9
20260902163332 100 145 4.0 8.0 0.00 0.00 0.00 60 1019.0
20260902162331 100 30 2.0 6.0 0.00 0.00 0.00 61 1019.1
20260902161321 100 28 3.0 8.0 0.00 0.00 0.00 59 1019.1
20260902160311 100 146 2.0 8.0 0.00 0.00 0.00 59 1019.2
20260902155326 99 166 2.0 7.0 0.00 0.00 0.00 60 1019.2
20260902154323 98 99 3.0 6.0 0.00 0.00 0.00 62 1019.2
20260902153313 97 350 2.0 5.0 0.00 0.00 0.00 63 1019.3
20260902152330 96 69 2.0 5.0 0.00 0.00 0.00 67 1019.2
20260902151320 95 131 2.0 4.0 0.00 0.00 0.00 67 1019.1
20260902150316 94 338 2.0 4.0 0.00 0.00 0.00 69 1019.0
20260902145324 93 5 3.0 4.0 0.00 0.00 0.00 69 1019.0
20260902144325 92 347 1.0 3.0 0.00 0.00 0.00 71 1018.9
20260902143334 91 42 2.0 4.0 0.00 0.00 0.00 73 1018.9
20260902142311 90 215 2.0 5.0 0.00 0.00 0.00 73 1019.0
20260902141328 90 255 3.0 6.0 0.00 0.00 0.00 74 1018.8
20260902140325 89 340 2.0 3.0 0.00 0.00 0.00 77 1018.8
20260902135320 89 225 3.0 4.0 0.00 0.00 0.00 76 1018.9
20260902134341 88 261 2.0 3.0 0.00 0.00 0.00 78 1018.9
20260902133335 87 310 2.0 4.0 0.00 0.00 0.00 78 1018.9
20260902132309 86 261 2.0 4.0 0.00 0.00 0.00 80 1018.9
20260902131317 85 244 3.0 4.0 0.00 0.00 0.00 81 1018.9
20260902130332 85 259 3.0 6.0 0.00 0.00 0.00 82 1019.0
20260902125334 84 250 2.0 5.0 0.00 0.00 0.00 85 1018.9
20260902124311 83 256 4.0 6.0 0.00 0.00 0.00 86 1019.0
20260902123334 82 215 4.0 7.0 0.00 0.00 0.00 86 1019.1
20260902122310 81 223 5.0 8.0 0.00 0.00 0.00 87 1019.1
20260902121336 81 279 4.0 8.0 0.00 0.00 0.00 88 1019.1
20260902120329 80 223 4.0 7.0 0.00 0.00 0.00 89 1019.1
20260902115325 80 265 4.0 6.0 0.00 0.00 0.00 89 1019.2
20260902114329 80 223 2.0 6.0 0.00 0.00 0.00 89 1019.2
20260902113350 79 248 2.0 4.0 0.00 0.00 0.00 90 1019.2
20260902112323 79 242 2.0 4.0 0.00 0.00 0.00 90 1019.1
20260902111342 79 257 2.0 4.0 0.00 0.00 0.00 89 1019.1
20260902110313 79 188 2.0 7.0 0.00 0.00 0.00 89 1018.8
20260902105333 79 259 3.0 4.0 0.00 0.00 0.00 89 1018.8
20260902104330 79 242 3.0 5.0 0.00 0.00 0.00 89 1018.7
20260902103350 80 251 2.0 5.0 0.00 0.00 0.00 88 1018.7
20260902102332 80 201 2.0 5.0 0.00 0.00 0.00 88 1018.7
20260902101324 80 194 3.0 5.0 0.00 0.00 0.00 88 1018.7
20260902100318 80 255 3.0 7.0 0.00 0.00 0.00 88 1018.6
20260902095338 80 223 3.0 5.0 0.00 0.00 0.00 87 1018.6
20260902094311 80 244 3.0 5.0 0.00 0.00 0.00 87 1018.5
20260902093312 80 210 3.0 7.0 0.00 0.00 0.00 87 1018.6
20260902092310 80 237 2.0 6.0 0.00 0.00 0.00 86 1018.7
20260902091331 81 233 3.0 8.0 0.00 0.00 0.00 86 1018.6
20260902090324 81 219 2.0 6.0 0.00 0.00 0.00 85 1018.5
20260902085318 81 236 3.0 7.0 0.00 0.00 0.00 85 1018.5
20260902084337 81 254 2.0 7.0 0.00 0.00 0.00 85 1018.5
20260902083310 81 217 3.0 5.0 0.00 0.00 0.00 84 1018.5
20260902082331 81 219 3.0 9.0 0.00 0.00 0.00 84 1018.4
20260902081314 81 196 3.0 7.0 0.00 0.00 0.00 84 1018.3
20260902080311 81 229 4.0 8.0 0.00 0.00 0.00 84 1018.4
20260902075334 81 206 4.0 8.0 0.00 0.00 0.00 83 1018.4
20260902074309 81 150 3.0 7.0 0.00 0.00 0.00 83 1018.4
20260902073332 81 161 3.0 5.0 0.00 0.00 0.00 83 1018.4
20260902072328 81 150 2.0 7.0 0.00 0.00 0.00 83 1018.4
20260902071324 82 234 2.0 6.0 0.00 0.00 0.00 83 1018.4
20260902070327 82 164 3.0 5.0 0.00 0.00 0.00 83 1018.6
20260902065319 82 205 3.0 5.0 0.00 0.00 0.00 82 1018.6
20260902064317 82 163 3.0 5.0 0.00 0.00 0.00 82 1018.7
20260902063319 82 194 2.0 6.0 0.00 0.00 0.00 83 1018.7
20260902062316 82 184 3.0 6.0 0.00 0.00 0.00 82 1018.8
20260902061335 82 213 3.0 6.0 0.00 0.00 0.00 83 1018.7
20260902060309 82 95 3.0 9.0 0.00 0.00 0.00 83 1018.7
20260902055328 82 195 3.0 7.0 0.00 0.00 0.00 84 1018.7
20260902054322 83 187 2.0 7.0 0.00 0.00 0.00 84 1018.7
20260902053313 83 146 2.0 5.0 0.00 0.00 0.00 84 1018.7
20260902052325 83 176 2.0 7.0 0.00 0.00 0.00 84 1018.6
20260902051347 83 147 4.0 8.0 0.00 0.00 0.00 83 1018.7
20260902050346 83 210 3.0 7.0 0.00 0.00 0.00 83 1018.6
20260902045337 83 256 3.0 6.0 0.00 0.00 0.00 83 1018.5
20260902044337 84 130 3.0 5.0 0.00 0.00 0.00 83 1018.5
20260902043310 84 184 2.0 7.0 0.00 0.00 0.00 83 1018.5
20260902042327 84 69 3.0 7.0 0.00 0.00 0.00 82 1018.3
20260902041324 84 142 3.0 6.0 0.00 0.00 0.00 82 1018.2
20260902040321 85 161 3.0 6.0 0.00 0.00 0.00 82 1018.2
20260902035314 85 226 4.0 7.0 0.00 0.00 0.00 81 1018.1
20260902034316 85 158 3.0 6.0 0.00 0.00 0.00 81 1018.1
20260902033312 85 184 3.0 7.0 0.00 0.00 0.00 80 1018.0
20260902032309 86 63 4.0 7.0 0.00 0.00 0.00 79 1018.1
20260902031313 86 173 3.0 8.0 0.00 0.00 0.00 79 1018.0
20260902030310 86 205 2.0 8.0 0.00 0.00 0.00 78 1017.9
20260902025311 86 167 3.0 6.0 0.00 0.00 0.00 78 1018.0
20260902024313 86 155 3.0 5.0 0.00 0.00 0.00 77 1018.0
20260902023309 87 122 3.0 7.0 0.00 0.00 0.00 76 1017.9
20260902022331 87 144 3.0 6.0 0.00 0.00 0.00 75 1018.0
20260902021325 87 217 3.0 6.0 0.00 0.00 0.00 75 1017.9
20260902020344 87 187 3.0 5.0 0.00 0.00 0.00 75 1017.8
20260902015324 87 157 3.0 5.0 0.00 0.00 0.00 74 1017.7
20260902014320 87 145 3.0 5.0 0.00 0.00 0.00 74 1017.5
20260902013316 87 136 3.0 6.0 0.00 0.00 0.00 73 1017.5
20260902012320 88 175 2.0 5.0 0.00 0.00 0.00 72 1017.4
20260902011318 88 158 2.0 5.0 0.00 0.00 0.00 72 1017.3
20260902010314 88 153 2.0 4.0 0.00 0.00 0.00 72 1017.2
20260902005316 88 175 3.0 5.0 0.00 0.00 0.00 72 1017.1